SCP
0 0 0 0 0 0 0 0 0 0 0 0 0 0 0 0 0 0 0 0 0 0 0 0 0 0 0 0 0 0 0 0 0 0 0 0 0 0 0 0 0 0 0 0
0 0 0 0 0 0 0 0 0 0 0 0 0 0 0 0 0 0 0 0 0 0 0 0 0 0 0 0 0 0 0 0 0 0 0 0 0 0 0 0 0 0 0 0
0 0 0 0 0 0 0 0 0 0 0 0 0 0 0 0 0 0 0 0 0 0 0 0 0 0 0 0 0 0 0 0 0 0 0 0 0 0 0 0 0 0 0 0
0 0 0 0 0 0 0 0 0 0 0 0 0 0 0 0 0 0 0 0 0 0 0 0 0 0 0 0 0 0 0 0 0 0 0 0 0 0 0 0 0 0 0 0
0 0 0 0 0 0 0 0 0 0 0 0 0 0 0 0 0 0 0 0 0 0 0 0 0 0 0 0 0 0 0 0 0 0 0 0 0 0 0 0 0 0 0 0
0 0 0 0 0 0 0 0 0 0 0 0 0 0 0 0 0 0 0 0 0 0 0 0 0 0 0 0 0 0 0 0 0 0 0 0 0 0 0 0 0 0 0 0
0 0 0 0 0 0 0 0 0 0 0 0 0 0 0 0 0 0 0 0 0 0 0 0 0 0 0 0 0 0 0 0 0 0 0 0 0 0 0 0 0 0 0 0
0 0 0 0 0 0 0 0 0 0 0 0 0 0 0 0 0 0 0 0 0 0 0 0 0 0 0 0 0 0 0 0 0 0 0 0 0 0 0 0 0 0 0 0
0 0 0 0 0 0 0 0 0 0 0 0 0 0 0 0 0 0 0 0 0 0 0 0 0 0 0 0 0 0 0 0 0 0 0 0 0 0 0 0 0 0 0 0
0 0 0 0 0 0 0 0 0 0 0 0 0 0 0 0 0 0 0 0 0 0 0 0 0 0 0 0 0 0 0 0 0 0 0 0 0 0 0 0 0 0 0 0
0 0 0 0 0 0 0 0 0 0 0 0 0 0 0 0 0 0 0 0 0 0 0 0 0 0 0 0 0 0 0 0 0 0 0 0 0 0 0 0 0 0 0 0
0 0 0 0 0 0 0 0 0 0 0 0 0 0 0 0 0 0 0 0 0 0 0 0 0 0 0 0 0 0 0 0 0 0 0 0 0 0 0 0 0 0 0 0
0 0 0 0 0 0 0 0 0 0 0 0 0 0 0 0 0 0 0 0 0 0 0 0 0 0 0 0 0 0 0 0 0 0 0 0 0 0 0 0 0 0 0 0
0 0 0 0 0 0 0 0 0 0 0 0 0 0 0 0 0 0 0 0 0 0 0 0 0 0 0 0 0 0 0 0 0 0 0 0 0 0 0 0 0 0 0 0
0 0 0 0 0 0 0 0 0 0 0 0 0 0 0 0 0 0 0 0 0 0 0 0 0 0 0 0 0 0 0 0 0 0 0 0 0 0 0 0 0 0 0 0
0 0 0 0 0 0 0 0 0 0 0 0 0 0 0 0 0 0 0 0 0 0 0 0 0 0 0 0 0 0 0 0 0 0 0 0 0 0 0 0 0 0 0 0
0 0 0 0 0 0 0 0 0 0 0 0 0 0 0 0 0 0 0 0 0 0 0 0 0 0 0 0 0 0 0 0 0 0 0 0 0 0 0 0 0 0 0 0
0 0 0 0 0 0 0 0 0 0 0 0 0 0 0 0 0 0 0 0 0 0 0 0 0 0 0 0 0 0 0 0 0 0 0 0 0 0 0 0 0 0 0 0
0 0 0 0 0 0 0 0 0 0 0 0 0 0 0 0 0 0 0 0 0 0 0 0 0 0 0 0 0 0 0 0 0 0 0 0 0 0 0 0 0 0 0 0
0 0 0 0 0 0 0 0 0 0 0 0 0 0 0 0 0 0 0 0 0 0 0 0 0 0 0 0 0 0 0 0 0 0 0 0 0 0 0 0 0 0 0 0
0 0 0 0 0 0 0 0 0 0 0 0 0 0 0 0 0 0 0 0 0 0 0 0 0 0 0 0 0 0 0 0 0 0 0 0 0 0 0 0 0 0 0 0
0 0 0 0 0 0 0 0 0 0 0 0 0 0 0 0 0 0 0 0 0 0 0 0 0 0 0 0 0 0 0 0 0 0 0 0 0 0 0 0 0 0 0 0
0 0 0 0 0 0 0 0 0 0 0 0 0 0 0 0 0 0 0 0 0 0 0 0 0 0 0 0 0 0 0 0 0 0 0 0 0 0 0 0 0 0 0 0
0 0 0 0 0 0 0 0 0 0 0 0 0 0 0 0 0 0 0 0 0 0 0 0 0 0 0 0 0 0 0 0 0 0 0 0 0 0 0 0 0 0 0 0
0 0 0 0 0 0 0 0 0 0 0 0 0 0 0 0 0 0 0 0 0 0 0 0 0 0 0 0 0 0 0 0 0 0 0 0 0 0 0 0 0 0 0 0
0 0 0 0 0 0 0 0 0 0 0 0 0 0 0 0 0 0 0 0 0 0 0 0 0 0 0 0 0 0 0 0 0 0 0 0 0 0 0 0 0 0 0 0
Wind_Speed
6 5 8 10 12 10 9 7 8 3 6 5 8 10 8 11 10 9 9 10 9 8 8 7 6 5 5 4 5 5 6 5 5 5 5 6 6 6 6 7 9 9 9 9
5 11 13 8 6 8 8 8 8 7 4 2 6 11 10 10 13 12 12 11 11 10 8 8 7 6 6 6 5 5 5 4 4 5 5 5 6 6 6 5 8 9 9 9
11 4 6 11 7 5 8 9 9 7 3 4 4 10 13 13 13 12 11 10 12 14 12 10 8 7 7 6 5 5 5 6 7 8 8 8 6 5 5 6 6 7 8 9
11 8 3 5 8 8 8 7 9 7 5 5 7 7 7 9 11 13 11 9 10 11 12 11 9 8 8 6 6 6 6 7 8 8 7 8 7 6 5 5 5 7 8 8
9 7 7 8 8 9 3 4 1 2 4 6 6 10 8 8 9 13 12 11 10 11 12 12 10 9 8 7 6 6 6 7 7 6 7 9 9 8 7 6 8 7 6 7
7 2 4 3 1 5 8 4 2 0 2 7 10 13 10 9 12 12 15 14 12 12 11 11 9 9 8 7 6 6 7 6 6 8 8 10 12 11 10 8 7 5 4 5
7 7 3 3 5 4 7 5 2 4 5 10 10 12 10 6 3 6 12 15 13 13 12 12 12 11 10 9 8 7 8 7 7 8 9 9 10 10 10 9 8 7 4 4
10 10 16 11 11 9 10 9 9 8 7 5 4 11 7 3 4 4 6 12 13 13 12 12 12 11 11 10 9 9 9 8 8 8 9 8 9 7 6 7 7 6 5 5
10 8 7 11 6 10 8 9 7 3 1 4 8 8 6 2 2 3 6 11 13 13 13 13 12 11 11 11 9 10 10 9 8 9 9 8 8 7 8 8 7 6 5 5
5 5 6 6 3 5 4 6 4 6 5 8 10 11 10 11 14 11 11 13 13 13 13 13 13 12 11 10 8 9 9 9 9 8 7 7 7 8 8 7 8 7 6 6
7 6 6 4 12 14 8 6 7 6 6 6 8 10 5 15 14 16 17 16 17 18 16 15 13 12 11 10 9 9 9 9 9 8 8 8 7 8 8 7 7 7 6 6
10 5 6 9 6 6 10 11 12 9 9 8 8 9 3 2 5 13 16 16 15 15 14 13 13 13 12 12 11 10 10 9 9 8 8 8 8 8 7 7 7 7 7 6
11 9 4 2 3 2 7 13 17 11 6 10 13 10 1 3 2 5 11 14 14 14 14 14 14 14 14 14 12 11 11 10 9 9 9 8 8 8 8 8 8 7 7 7
10 8 14 19 9 12 11 13 17 17 12 16 21 14 6 5 6 6 9 12 13 15 16 16 16 15 15 14 13 13 11 11 10 10 10 10 9 9 8 8 8 8 7 7
10 10 11 14 11 9 11 16 23 26 26 19 19 21 17 12 14 13 11 12 13 14 16 18 17 16 15 15 14 14 13 13 12 11 11 10 9 8 8 8 8 7 7 7
10 8 8 14 13 11 11 17 22 26 23 28 25 26 11 11 12 12 14 15 16 16 18 18 16 15 17 17 16 15 14 13 12 12 12 10 10 9 9 9 8 8 7 6
8 8 9 16 11 8 23 29 19 21 21 18 30 32 9 12 14 17 18 18 18 18 18 18 17 17 16 16 15 16 14 12 13 12 10 10 10 10 10 9 9 9 8 7
14 12 8 8 10 25 25 12 23 28 27 23 20 11 12 17 15 14 15 19 18 16 15 14 13 13 11 11 12 11 10 12 12 11 10 10 10 10 9 9 9 9 7 7
18 16 11 10 19 21 22 9 13 19 28 27 26 19 10 8 5 6 7 13 15 13 11 11 11 10 11 11 12 11 11 11 12 12 12 11 11 11 10 10 10 8 7 7
18 17 14 14 14 16 13 4 11 14 23 15 19 19 12 13 12 10 7 7 8 8 8 9 9 9 11 11 12 12 11 12 13 13 12 11 10 11 11 11 9 7 7 7
21 19 22 23 20 13 6 2 8 13 13 2 11 13 14 15 8 6 10 8 8 8 8 9 11 10 10 11 12 12 11 13 11 9 9 9 10 10 10 8 6 6 6 6
17 14 16 15 19 15 5 5 9 5 1 2 2 5 8 7 7 8 9 9 9 8 8 9 9 8 8 10 12 12 11 10 8 9 9 9 9 8 7 8 7 6 7 7
7 7 6 8 5 1 2 2 1 2 3 3 3 5 8 7 6 6 7 8 8 8 9 7 9 9 8 8 10 12 9 8 9 9 8 7 7 6 7 8 8 6 6 6
2 1 3 3 2 2 3 3 2 3 3 4 4 5 5 6 7 7 8 8 8 7 7 7 9 9 7 7 7 7 7 9 9 9 8 7 7 6 6 5 6 7 8 8
4 4 4 4 2 2 3 4 3 1 2 4 4 3 4 6 6 7 7 7 7 6 6 7 8 8 8 7 7 5 7 8 8 7 7 6 6 6 6 6 6 7 6 7
4 5 5 5 8 6 6 8 7 4 3 3 3 3 2 4 6 6 6 6 7 7 6 6 6 7 6 6 6 5 6 8 8 6 6 6 5 5 5 5 4 10 10 12
Wind_Direction
181 209 211 209 214 243 288 315 305 310 122 183 233 252 234 186 201 213 196 180 175 159 132 135 138 142 134 130 130 129 127 129 124 114 103 94 83 74 64 59 58 58 59 61
175 231 232 238 237 230 249 263 267 281 130 184 262 265 259 199 200 204 201 186 172 150 146 153 154 157 152 145 142 135 134 124 97 91 93 95 101 87 78 67 62 59 59 61
208 198 226 219 224 233 238 237 245 251 180 198 265 272 241 232 208 202 203 187 170 164 163 162 165 160 148 144 140 134 126 113 108 108 109 111 100 91 74 66 65 59 62 63
231 238 177 194 206 204 242 234 231 256 283 254 203 272 246 232 210 201 195 187 171 159 158 160 163 157 147 137 130 126 124 122 126 132 136 133 124 119 109 101 86 69 61 64
218 187 171 198 206 197 196 43 55 235 253 274 265 273 254 225 223 209 199 189 176 159 158 159 161 152 141 139 137 130 127 130 137 133 123 118 116 116 116 111 99 85 69 65
245 127 179 197 121 184 125 102 90 223 237 252 218 235 260 212 219 207 199 187 173 159 155 151 145 139 138 138 136 135 131 125 121 119 120 128 131 133 131 126 118 107 94 80
233 213 192 121 113 137 144 147 201 229 222 242 207 222 250 226 224 200 181 172 166 159 158 155 153 156 154 154 152 145 141 138 133 128 127 134 136 136 136 136 131 127 116 102
202 217 188 185 181 169 190 178 181 213 229 252 220 229 250 90 36 29 130 152 157 162 165 164 166 165 161 159 158 155 151 147 141 136 135 136 135 132 132 132 132 128 125 123
210 224 155 171 181 159 168 214 214 242 247 278 249 249 247 107 198 191 159 161 170 171 170 168 168 165 161 161 163 159 153 149 145 141 138 137 133 129 130 127 121 119 125 129
224 202 132 111 108 274 207 173 154 191 215 249 253 229 222 199 216 199 188 182 180 176 174 171 170 165 161 161 159 153 153 152 148 144 144 138 132 130 130 127 130 133 135 134
220 181 139 150 194 188 180 191 189 192 204 215 261 248 225 190 196 192 193 190 185 182 181 176 170 163 158 158 161 157 158 153 152 150 144 138 137 136 133 135 140 141 143 146
201 190 188 203 205 211 199 190 182 187 219 219 244 257 337 67 184 181 187 188 186 183 179 174 167 163 164 167 170 168 164 160 159 152 146 145 144 142 144 149 149 147 149 151
161 167 186 239 171 221 221 211 209 216 217 220 231 252 320 29 28 165 177 180 180 178 176 173 171 174 176 176 176 174 170 165 160 155 153 154 156 157 160 159 155 154 155 154
164 180 199 216 196 178 200 208 209 211 227 237 238 243 219 211 218 206 186 179 178 180 180 181 182 183 182 180 179 177 175 168 165 162 163 167 170 169 168 162 160 162 163 162
168 205 227 239 229 187 188 202 209 216 222 231 241 240 234 209 209 206 188 176 178 182 186 188 189 186 182 180 180 180 178 173 171 170 174 177 172 167 165 165 166 168 170 172
180 204 221 245 238 239 241 224 212 218 227 236 247 249 222 213 200 190 182 182 187 190 193 194 190 185 184 184 181 180 180 174 171 176 182 174 169 169 171 170 168 170 175 175
176 184 202 241 229 235 243 235 217 222 222 223 240 247 223 219 204 194 186 186 192 194 194 194 192 190 187 184 179 180 177 167 171 178 177 173 171 174 175 170 171 181 184 182
184 192 211 241 219 236 246 223 215 228 235 226 235 239 202 214 212 201 186 183 191 192 191 191 187 184 176 168 168 164 161 165 173 176 176 174 173 177 173 173 184 189 185 191
195 196 212 226 242 254 263 215 191 212 239 228 232 237 213 189 179 218 186 177 183 181 177 177 175 169 162 161 159 154 160 164 172 180 181 180 178 176 177 187 193 191 189 197
204 205 217 226 234 238 256 190 177 179 243 227 213 222 192 154 194 217 173 147 142 142 146 150 149 144 152 155 148 153 163 168 182 186 184 180 178 181 188 195 193 186 191 200
202 210 222 231 239 243 254 216 143 183 241 226 198 197 174 185 199 147 135 128 129 130 132 136 139 145 152 147 147 157 166 185 188 174 169 173 181 187 190 186 181 181 185 188
197 207 219 225 235 238 171 164 184 205 23 25 115 146 146 123 105 110 121 127 129 129 133 136 136 138 140 145 151 162 183 185 161 159 167 176 180 180 177 176 178 176 177 188
204 203 197 206 223 52 100 148 41 56 76 42 72 103 118 117 123 123 131 138 142 143 143 139 137 135 141 155 161 172 183 157 152 159 170 173 169 170 169 174 176 171 177 193
215 10 113 110 87 54 10 353 2 35 58 53 71 106 119 127 137 139 143 148 149 147 147 139 138 145 159 172 180 176 155 150 154 165 170 165 167 172 170 174 176 181 190 199
151 136 114 103 109 103 304 271 260 319 51 63 67 83 119 130 141 149 152 157 155 148 146 149 157 168 177 174 182 170 152 150 160 167 168 168 173 175 180 190 198 196 202 199
169 163 160 176 179 173 205 219 217 211 212 167 132 116 118 148 154 152 158 160 155 154 151 158 171 180 181 173 178 167 161 160 162 170 175 176 175 177 178 184 216 236 227 232